Flag for France

Past Weather in Marseille, Provence-Alpes-Côte-d’Azur, France — Yesterday and Last 2 Weeks

Currently: 50 °F. Partly cloudy. (Weather station: Marseille / Marignane, France). See more current weather

Past Weather in Marseille — Graph

°F

Marseille Temperature Yesterday

Maximum temperature yesterday: 52 °F (at 3:00 pm)
Minimum temperature yesterday: 43 °F (at 7:00 am)
Average temperature yesterday: 46 °F

High & Low Weather Summary for the Past Weeks

 TemperatureHumidityPressure
High59 °F (Jan 20, 2:30 pm)100% (Jan 10, 12:30 pm)30.30 "Hg (Jan 10, 12:30 pm)
Low25 °F (Jan 12, 4:30 am)36% (Jan 16, 8:30 pm)29.27 "Hg (Jan 22, 2:30 pm)
Average45 °F73%29.97 "Hg
* Reported Jan 10 2:30 am — Jan 25 2:00 am, Marseille. Weather by CustomWeather, © 2021

Note: Actual official high and low records may vary slightly from our data, if they occured in-between our weather recording intervals... More about our weather records

Marseille Weather History for the Previous 24 Hours

Scroll right to see more
 ConditionsComfort  
Time TempWeatherWind HumidityBarometerVisibility
2:00 am
Mon, Jan 25
50 °FClear.18 mph76%29.68 "Hg10 mi
1:30 am50 °FOvercast.15 mph82%29.68 "HgN/A
1:00 am50 °FPassing clouds.13 mph82%29.71 "HgN/A
12:30 am50 °FOvercast.12 mph76%29.71 "HgN/A
12:00 am50 °FOvercast.10 mph82%29.71 "HgN/A
11:30 pm
Sun, Jan 24
50 °FOvercast.9 mph82%29.74 "HgN/A
11:00 pm45 °FPartly cloudy.5 mph87%29.74 "HgN/A
10:30 pm43 °FPartly cloudy.6 mph87%29.74 "HgN/A
10:00 pm45 °FClear.8 mph81%29.74 "Hg10 mi
9:30 pm43 °FPassing clouds.5 mph71%29.74 "HgN/A
9:00 pm45 °FClear.1 mph71%29.74 "Hg10 mi
8:30 pm45 °FClear.5 mph66%29.74 "Hg10 mi
8:00 pm45 °FPassing clouds.3 mph66%29.74 "HgN/A
7:30 pm46 °FPartly cloudy.6 mph62%29.74 "HgN/A
7:00 pm46 °FClear.5 mph71%29.74 "Hg10 mi
6:30 pm46 °FClear.7 mph71%29.74 "Hg10 mi
6:00 pm46 °FClear.10 mph66%29.71 "Hg10 mi
5:30 pm46 °FSunny.13 mph66%29.71 "Hg10 mi
5:00 pm48 °FSunny.10 mph62%29.71 "Hg10 mi
4:30 pm50 °FSunny.14 mph58%29.71 "Hg10 mi
4:00 pm52 °FSunny.13 mph44%29.68 "Hg10 mi
3:30 pm52 °FSunny.13 mph44%29.71 "Hg10 mi
3:00 pm52 °FSunny.16 mph47%29.71 "Hg10 mi
2:30 pm50 °FSunny.20 mph47%29.68 "Hg10 mi
2:00 pm50 °FSunny.24 mph47%29.68 "Hg10 mi
1:30 pm50 °FSunny.24 mph47%29.68 "Hg10 mi
1:00 pm48 °FSunny.26 mph54%29.65 "Hg10 mi
12:30 pm48 °FSunny.25 mph54%29.65 "Hg10 mi
12:00 pm46 °FSunny.31 mph57%29.65 "Hg10 mi
11:30 am46 °FSunny.25 mph62%29.62 "Hg10 mi
11:00 am46 °FSunny.30 mph62%29.62 "Hg10 mi
10:30 am45 °FSunny.31 mph66%29.59 "Hg10 mi
10:00 am45 °FSunny.30 mph71%29.56 "Hg10 mi
9:30 am45 °FSunny.26 mph71%29.56 "Hg10 mi
9:00 am43 °FPassing clouds.24 mph81%29.53 "HgN/A
8:30 am43 °FScattered clouds.20 mph81%29.50 "HgN/A
8:00 am43 °FPartly cloudy.13 mph87%29.50 "HgN/A
7:30 am43 °FPassing clouds.10 mph87%29.47 "HgN/A
7:00 am43 °FPassing clouds.13 mph93%29.47 "HgN/A
6:30 am45 °FPartly cloudy.12 mph87%29.47 "HgN/A
6:00 am45 °FLight rain. Clear.9 mph87%29.47 "HgN/A
5:30 am45 °FLight rain. Mostly cloudy.10 mph87%29.47 "HgN/A
5:00 am45 °FLight rain. Overcast.10 mph87%29.47 "HgN/A
4:30 am45 °FLight rain. Mostly cloudy.9 mph87%29.47 "HgN/A
4:00 am45 °FLight rain. Passing clouds.10 mph87%29.47 "Hg5 mi
3:30 am46 °FLight rain. Overcast.9 mph76%29.47 "HgN/A
3:00 am46 °FOvercast.5 mph87%29.50 "HgN/A
Weather by CustomWeather, © 2021

See weather overview